[[{"header":{"parameterUnit":"m.s-1","parameterCategory":2,"la1":30.2991,"la2":30.254,"lo1":-89.0895,"lo2":-89.0444,"dy":0.0017,"dx":0.0017,"nx":28,"ny":28,"refTime":"2026-01-31T09:00:00:Z","depth":"0","parameterNumber":2,"parameterNumberName":"U-component_of_CURRENTS"},"data":[0,0,0,0,0,0,0,0,0,0,0,0,0,0,0,0,0,0,0,0,0,0,0,0,0,0,0,0,0,0,0,0,0,0,0,0,0,0,0,0,0,0,0,0,0,0,0,0,0,0,0,0,0,0,0,0,0,0,-0.244,-0.244,0,-0.2483,-0.2484,-0.2484,-0.2469,-0.2468,-0.2467,-0.2466,-0.2529,-0.2532,-0.2534,0,0,0,0,0,0,0,0,0,0,0,0,0,-0.2396,-0.2396,-0.2439,-0.244,-0.2441,-0.2483,-0.2484,-0.2484,-0.2469,-0.2468,-0.2467,-0.2466,-0.2529,-0.2532,-0.2535,0,0,0,0,0,0,0,0,0,0,0,0,0,-0.2424,-0.2396,-0.2439,-0.2438,-0.2439,-0.2483,-0.2484,-0.2484,-0.2469,-0.2468,-0.2467,-0.2465,-0.2528,-0.2531,-0.2535,-0.2587,0,0,-0.2547,-0.2548,0,0,0,0,0,0,0,0,-0.2423,-0.2426,-0.2438,-0.2439,-0.2439,-0.2469,-0.2491,-0.252,-0.247,-0.2458,-0.2466,-0.2465,-0.2512,-0.2517,-0.2528,-0.259,-0.2592,-0.2547,-0.2549,-0.2551,-0.2552,0,0,0,0,0,0,0,-0.2421,-0.2424,-0.2456,-0.2439,-0.2439,-0.2454,-0.2456,-0.2497,-0.2492,-0.2458,-0.2458,-0.2463,-0.2513,-0.2524,-0.2529,-0.2593,-0.2547,-0.255,-0.2553,-0.2554,-0.2685,-0.2686,0,0,0,0,0,0,-0.2415,-0.2422,-0.2455,-0.2458,-0.2428,-0.2456,-0.2458,-0.2461,-0.2492,-0.2495,-0.2465,-0.2462,-0.2518,-0.2525,-0.2532,-0.2565,-0.2551,-0.2555,-0.2557,-0.2684,-0.2685,-0.2686,0,0,0,0,0,0,-0.2414,-0.2417,-0.2453,-0.2441,-0.2447,-0.2458,-0.2461,-0.2463,-0.2468,-0.2496,-0.2499,-0.2468,-0.2518,-0.2526,-0.2559,-0.2568,-0.2556,-0.256,-0.2682,-0.2684,-0.2686,-0.2651,0,0,0,0,0,0,-0.2412,-0.2416,-0.2416,-0.2441,-0.2447,-0.2466,-0.2463,-0.2464,-0.2474,-0.2472,-0.2501,-0.2505,-0.2517,-0.2554,-0.2563,-0.2573,-0.2563,-0.2681,-0.2683,-0.2685,-0.265,-0.2651,-0.2652,0,0,0,0,0,-0.241,-0.241,-0.2415,-0.2419,-0.2446,-0.2466,-0.247,-0.2474,-0.2476,-0.2474,-0.2497,-0.2504,-0.2574,-0.2558,-0.2569,-0.258,-0.268,-0.2682,-0.2685,-0.265,-0.2651,-0.2652,0,0,0,0,0,0,-0.2392,-0.241,-0.2415,-0.2421,-0.2437,-0.2463,-0.2465,-0.2477,-0.2496,-0.2494,-0.2519,-0.2526,-0.2555,-0.2583,-0.2564,-0.2627,-0.2629,-0.2634,-0.2599,-0.26,-0.2601,-0.2592,-0.2566,0,0,0,0,0,-0.239,-0.2391,-0.2415,-0.2419,-0.2427,-0.245,-0.2459,-0.2465,-0.2487,-0.2493,-0.2513,-0.2545,-0.2579,-0.2599,-0.2626,-0.267,-0.2666,-0.2686,-0.2687,-0.2687,-0.269,-0.2728,-0.2731,-0.2695,-0.2695,-0.2695,0,0,-0.2385,-0.2395,-0.2395,-0.2415,-0.2429,-0.2443,-0.2451,-0.2463,-0.2477,-0.2501,-0.252,-0.2544,-0.259,-0.2623,-0.264,-0.2645,-0.2682,-0.269,-0.269,-0.2693,-0.2731,-0.2734,-0.2737,-0.2697,-0.2696,-0.2696,0,0,-0.2376,-0.2384,-0.2383,-0.2398,-0.2418,-0.2435,-0.2439,-0.2463,-0.247,-0.25,-0.2519,-0.255,-0.2601,-0.2631,-0.2657,-0.2689,-0.2679,-0.2699,-0.2701,-0.2737,-0.274,-0.2742,-0.2672,-0.2669,-0.2706,-0.2706,-0.2706,0,-0.237,-0.2371,-0.2386,-0.2395,-0.2406,-0.2431,-0.2439,-0.246,-0.249,-0.2504,-0.2498,-0.2575,-0.2607,-0.2662,-0.2667,-0.2688,-0.2673,-0.2688,-0.2735,-0.2738,-0.2742,-0.267,-0.2667,-0.2704,-0.2704,-0.2705,-0.2705,0,-0.2364,-0.2367,-0.2369,-0.2386,-0.2403,-0.2411,-0.2444,-0.2458,-0.2473,-0.2496,-0.2536,-0.2576,-0.2623,-0.2641,-0.2664,-0.2711,-0.2673,-0.2721,-0.2724,-0.2742,-0.2665,-0.2663,-0.2702,-0.2703,-0.2703,-0.2704,0,0,-0.2342,-0.2359,-0.2359,-0.2363,-0.2396,-0.2408,-0.2436,-0.2467,-0.2485,-0.2514,-0.2539,-0.26,-0.2617,-0.2649,-0.2681,-0.2717,-0.2701,-0.2727,-0.273,-0.2638,-0.2699,-0.2589,-0.2575,-0.2761,-0.2763,-0.2764,-0.2608,0,-0.2329,-0.2331,-0.2351,-0.2359,-0.2362,-0.2399,-0.2422,-0.2458,-0.2486,-0.2515,-0.2566,-0.26,-0.2624,-0.2641,-0.2682,-0.2718,-0.2705,-0.2734,-0.2712,-0.2709,-0.2598,-0.2574,-0.2515,-0.2368,-0.2605,-0.2605,-0.2605,0,-0.2313,-0.2315,-0.2315,-0.2336,-0.2343,-0.2357,-0.2393,-0.2419,-0.2477,-0.2499,-0.2546,-0.2582,-0.2635,-0.2656,-0.2692,-0.2708,-0.2691,-0.2701,-0.2696,-0.2613,-0.2598,-0.2406,-0.2354,-0.2247,-0.2601,-0.2601,-0.2601,0,-0.2274,-0.229,-0.2284,-0.2293,-0.2326,-0.2335,-0.2355,-0.2408,-0.2429,-0.2487,-0.2506,-0.2571,-0.2597,-0.263,-0.2636,-0.2672,-0.2643,-0.27,-0.2558,-0.2545,-0.2501,-0.2484,-0.2336,-0.2696,-0.2697,-0.2697,-0.2698,0,-0.2246,-0.2242,-0.2261,-0.2258,-0.2256,-0.2296,-0.2306,-0.2341,-0.2392,-0.2414,-0.249,-0.2509,-0.2603,-0.2602,-0.261,-0.2545,-0.2612,-0.2531,-0.2515,-0.2477,-0.2461,-0.2374,-0.2316,-0.2691,-0.2692,-0.2694,-0.2695,0,-0.22,-0.2215,-0.2208,-0.223,-0.2234,-0.2231,-0.2263,-0.2271,-0.2331,-0.2361,-0.2378,-0.2459,-0.2454,-0.2475,-0.2499,-0.2484,-0.2347,-0.2402,-0.2288,-0.2262,-0.2054,-0.1996,-0.1798,-0.1709,-0.2229,-0.2226,-0.2223,0,-0.2172,-0.2163,-0.2172,-0.2161,-0.2164,-0.2168,-0.2166,-0.2226,-0.2242,-0.2319,-0.2326,-0.234,-0.2339,-0.2286,-0.2278,-0.2209,-0.2153,-0.2081,-0.2165,-0.1999,-0.1926,-0.1895,-0.1835,-0.2054,-0.205,-0.2047,-0.2045,0,-0.2112,-0.2119,-0.211,-0.2084,-0.2074,-0.2067,-0.2076,-0.2083,-0.2155,-0.2183,-0.2205,-0.2212,-0.2188,-0.2121,-0.2027,-0.1997,-0.1946,-0.2009,-0.1914,-0.1819,-0.1705,-0.1626,-0.2123,-0.2016,-0.2018,-0.2021,-0.2022,-0.2023,-0.2061,-0.2039,-0.2021,-0.1986,-0.1976,-0.1945,-0.1898,-0.1939,-0.1942,-0.1962,-0.2043,-0.2014,-0.1995,-0.1889,-0.1821,-0.1653,-0.1697,-0.1615,-0.1559,-0.1544,-0.1461,-0.1824,-0.167,-0.167,-0.1671,-0.1672,-0.1672,0,-0.1972,-0.1948,-0.1916,-0.1863,-0.1799,-0.1831,-0.1811,-0.1756,-0.1719,-0.1792,-0.1798,-0.175,-0.1647,-0.1588,-0.1434,-0.1268,-0.1256,-0.1163,-0.1144,-0.111,-0.1502,-0.1501,-0.1212,-0.1212,-0.1212,-0.1212,-0.1212,-0.1212,-0.1923,-0.1857,-0.1828,-0.1685,-0.1642,-0.152,-0.1477,-0.1444,-0.1459,-0.1435,-0.1427,-0.1465,-0.1452,-0.1217,-0.0975,-0.0919,-0.0772,-0.071,-0.0656,-0.0972,-0.1013,-0.1052,-0.1039,-0.0658,-0.0657,-0.0299,-0.0295,-0.0293]},{"header":{"parameterUnit":"m.s-1","parameterCategory":2,"la1":30.2991,"la2":30.254,"lo1":-89.0895,"lo2":-89.0444,"dy":0.0017,"dx":0.0017,"nx":28,"ny":28,"refTime":"2026-01-31T09:00:00:Z","depth":"0","parameterNumber":3,"parameterNumberName":"V-component_of_CURRENTS"},"data":[0,0,0,0,0,0,0,0,0,0,0,0,0,0,0,0,0,0,0,0,0,0,0,0,0,0,0,0,0,0,0,0,0,0,0,0,0,0,0,0,0,0,0,0,0,0,0,0,0,0,0,0,0,0,0,0,0,0,-0.0596,-0.0596,0,-0.0583,-0.0582,-0.0582,-0.0547,-0.0547,-0.0546,-0.0546,-0.048,-0.0478,-0.0477,0,0,0,0,0,0,0,0,0,0,0,0,0,-0.0585,-0.0585,-0.0596,-0.0596,-0.0596,-0.0583,-0.0582,-0.0582,-0.0547,-0.0547,-0.0546,-0.0545,-0.048,-0.0479,-0.0477,0,0,0,0,0,0,0,0,0,0,0,0,0,-0.0581,-0.0585,-0.0596,-0.0579,-0.0577,-0.0583,-0.0582,-0.0582,-0.0548,-0.0547,-0.0546,-0.0545,-0.0481,-0.0479,-0.0477,-0.0483,0,0,-0.0471,-0.0471,0,0,0,0,0,0,0,0,-0.0581,-0.0581,-0.0581,-0.058,-0.0578,-0.0567,-0.0554,-0.0547,-0.0548,-0.0557,-0.0546,-0.0545,-0.0506,-0.0502,-0.0499,-0.048,-0.0477,-0.0471,-0.047,-0.0469,-0.0469,0,0,0,0,0,0,0,-0.0581,-0.0581,-0.0589,-0.0582,-0.058,-0.0569,-0.0567,-0.0553,-0.0534,-0.0556,-0.0554,-0.0556,-0.0504,-0.0501,-0.0498,-0.0476,-0.0471,-0.047,-0.0468,-0.0468,-0.0463,-0.0464,0,0,0,0,0,0,-0.0588,-0.0582,-0.059,-0.0589,-0.058,-0.057,-0.0568,-0.057,-0.0535,-0.053,-0.0556,-0.0554,-0.0505,-0.05,-0.0495,-0.0503,-0.0469,-0.0468,-0.0467,-0.0462,-0.0463,-0.0464,0,0,0,0,0,0,-0.0588,-0.0589,-0.059,-0.0586,-0.0586,-0.0571,-0.0574,-0.0571,-0.0565,-0.0536,-0.053,-0.0555,-0.0504,-0.0498,-0.049,-0.05,-0.0467,-0.0465,-0.0461,-0.0462,-0.0464,-0.0517,0,0,0,0,0,0,-0.0588,-0.0589,-0.0592,-0.0587,-0.0586,-0.0598,-0.0575,-0.0571,-0.0569,-0.0566,-0.0533,-0.0526,-0.0503,-0.0493,-0.0488,-0.0497,-0.0464,-0.046,-0.0462,-0.0463,-0.0514,-0.052,-0.0526,0,0,0,0,0,-0.0587,-0.0596,-0.0592,-0.0593,-0.0591,-0.0598,-0.0597,-0.0583,-0.057,-0.0573,-0.0555,-0.0527,-0.0501,-0.0493,-0.0487,-0.0495,-0.0459,-0.0461,-0.0463,-0.0512,-0.0519,-0.0525,0,0,0,0,0,0,-0.0592,-0.0594,-0.0589,-0.0597,-0.06,-0.0593,-0.0595,-0.0587,-0.0576,-0.057,-0.0539,-0.0532,-0.053,-0.0509,-0.05,-0.0501,-0.0476,-0.0477,-0.0515,-0.0521,-0.0527,-0.0532,-0.0462,0,0,0,0,0,-0.0597,-0.0602,-0.0604,-0.0611,-0.0613,-0.0605,-0.0605,-0.0598,-0.059,-0.0584,-0.0564,-0.0545,-0.0537,-0.0525,-0.0514,-0.0512,-0.0485,-0.0515,-0.0521,-0.0525,-0.0527,-0.0501,-0.0504,-0.0471,-0.0471,-0.0471,0,0,-0.0601,-0.0602,-0.0605,-0.0612,-0.061,-0.0624,-0.0603,-0.0608,-0.0618,-0.0579,-0.0582,-0.0565,-0.0543,-0.0544,-0.0541,-0.0524,-0.0522,-0.0528,-0.0532,-0.0531,-0.0504,-0.0507,-0.0509,-0.0473,-0.0473,-0.0472,0,0,-0.0616,-0.0614,-0.0626,-0.0633,-0.0638,-0.0637,-0.0641,-0.0639,-0.0635,-0.0641,-0.0618,-0.0609,-0.0592,-0.058,-0.0571,-0.0601,-0.0557,-0.0597,-0.0623,-0.0599,-0.0601,-0.0602,-0.0575,-0.0574,-0.0595,-0.0595,-0.0595,0,-0.0622,-0.0637,-0.0631,-0.0648,-0.0658,-0.0646,-0.0667,-0.0667,-0.0663,-0.0664,-0.0648,-0.0632,-0.0611,-0.0613,-0.0624,-0.0613,-0.059,-0.0598,-0.0605,-0.0606,-0.0607,-0.0578,-0.0576,-0.0598,-0.0598,-0.0598,-0.0597,0,-0.0648,-0.0662,-0.0671,-0.0689,-0.07,-0.0715,-0.072,-0.0726,-0.0719,-0.0715,-0.0716,-0.069,-0.0677,-0.0672,-0.0656,-0.0655,-0.0634,-0.0618,-0.0586,-0.0613,-0.0582,-0.0579,-0.0602,-0.0601,-0.06,-0.06,0,0,-0.0661,-0.0685,-0.069,-0.0707,-0.0724,-0.0739,-0.0758,-0.0774,-0.0786,-0.0774,-0.0782,-0.0768,-0.0746,-0.0736,-0.0711,-0.0688,-0.0674,-0.0657,-0.0655,-0.0627,-0.0615,-0.064,-0.0638,-0.0655,-0.0655,-0.0654,-0.0592,0,-0.0686,-0.0723,-0.073,-0.0772,-0.0793,-0.0796,-0.0818,-0.0828,-0.0828,-0.0831,-0.0803,-0.0801,-0.0773,-0.0765,-0.074,-0.0692,-0.0667,-0.0692,-0.0595,-0.0593,-0.0608,-0.0636,-0.0735,-0.0692,-0.0589,-0.0588,-0.0588,0,-0.0715,-0.0736,-0.0777,-0.0816,-0.0826,-0.0849,-0.088,-0.0895,-0.0896,-0.0892,-0.0879,-0.0856,-0.083,-0.0798,-0.0725,-0.0741,-0.0685,-0.0642,-0.0638,-0.064,-0.0612,-0.0648,-0.0689,-0.0731,-0.0582,-0.0583,-0.0583,0,-0.0733,-0.0774,-0.0807,-0.0821,-0.0858,-0.088,-0.0898,-0.0913,-0.0928,-0.0926,-0.0928,-0.0894,-0.0869,-0.0806,-0.0725,-0.0722,-0.0636,-0.0617,-0.0586,-0.0586,-0.0641,-0.0648,-0.071,-0.0563,-0.0563,-0.0563,-0.0563,0,-0.0763,-0.0792,-0.0818,-0.0841,-0.0887,-0.09,-0.0942,-0.0955,-0.0964,-0.0986,-0.0955,-0.0955,-0.0867,-0.0812,-0.0738,-0.0658,-0.0643,-0.0597,-0.0577,-0.0664,-0.0673,-0.0687,-0.0662,-0.0561,-0.0561,-0.0562,-0.0562,0,-0.0782,-0.0797,-0.0839,-0.0879,-0.0899,-0.0929,-0.0975,-0.0999,-0.1001,-0.1026,-0.1026,-0.0989,-0.0926,-0.0839,-0.0729,-0.0675,-0.0604,-0.0566,-0.0676,-0.067,-0.0698,-0.0672,-0.0613,-0.0589,-0.0533,-0.0533,-0.0533,0,-0.0795,-0.0815,-0.0867,-0.0897,-0.0921,-0.0964,-0.0997,-0.1017,-0.1044,-0.1051,-0.1065,-0.1014,-0.0998,-0.0853,-0.077,-0.0663,-0.0608,-0.0658,-0.0676,-0.0727,-0.0681,-0.0625,-0.0605,-0.0765,-0.0767,-0.0769,-0.077,0,-0.0817,-0.0829,-0.0862,-0.0923,-0.0967,-0.1016,-0.1065,-0.1096,-0.1117,-0.1139,-0.1154,-0.1141,-0.1039,-0.1001,-0.0861,-0.078,-0.0699,-0.069,-0.0719,-0.0856,-0.0821,-0.078,-0.0769,-0.0786,-0.0784,-0.0783,-0.0782,-0.0782,-0.0825,-0.085,-0.0889,-0.0945,-0.0999,-0.1063,-0.1106,-0.1166,-0.1216,-0.128,-0.1245,-0.1277,-0.1223,-0.107,-0.0979,-0.092,-0.0793,-0.0896,-0.0852,-0.0785,-0.0797,-0.082,-0.0829,-0.0828,-0.0827,-0.0826,-0.0825,0,-0.0819,-0.0853,-0.0911,-0.0976,-0.103,-0.106,-0.1143,-0.119,-0.1266,-0.1373,-0.1406,-0.1458,-0.1417,-0.1322,-0.1226,-0.1134,-0.1052,-0.1057,-0.1036,-0.0996,-0.1029,-0.1081,-0.1176,-0.1176,-0.1176,-0.1176,-0.1176,-0.1176,-0.0817,-0.0855,-0.0884,-0.0972,-0.1026,-0.1097,-0.1143,-0.1242,-0.1339,-0.1511,-0.1609,-0.1659,-0.1616,-0.1436,-0.134,-0.1279,-0.1186,-0.1146,-0.1033,-0.1132,-0.1115,-0.1099,-0.1148,-0.1255,-0.1255,-0.1056,-0.1054,-0.1053]}],[{"header":{"parameterUnit":"m.s-1","parameterCategory":2,"la1":30.2991,"la2":30.254,"lo1":-89.0895,"lo2":-89.0444,"dy":0.0017,"dx":0.0017,"nx":28,"ny":28,"refTime":"2026-01-31T09:00:00:Z","depth":"2","parameterNumber":2,"parameterNumberName":"U-component_of_CURRENTS"},"data":[0,0,0,0,0,0,0,0,0,0,0,0,0,0,0,0,0,0,0,0,0,0,0,0,0,0,0,0,0,0,0,0,0,0,0,0,0,0,0,0,0,0,0,0,0,0,0,0,0,0,0,0,0,0,0,0,0,0,-0.2445,-0.2445,0,-0.2488,-0.2489,-0.2489,-0.2474,-0.2474,-0.2473,-0.2472,-0.2535,-0.2537,-0.254,0,0,0,0,0,0,0,0,0,0,0,0,0,-0.2401,-0.2402,-0.2445,-0.2445,-0.2446,-0.2488,-0.2489,-0.2489,-0.2475,-0.2474,-0.2472,-0.2471,-0.2534,-0.2537,-0.254,0,0,0,0,0,0,0,0,0,0,0,0,0,-0.2429,-0.2402,-0.2445,-0.2444,-0.2444,-0.2488,-0.2489,-0.2489,-0.2475,-0.2473,-0.2472,-0.2471,-0.2533,-0.2537,-0.254,-0.2592,0,0,-0.2552,-0.2554,0,0,0,0,0,0,0,0,-0.2428,-0.2431,-0.2443,-0.2444,-0.2445,-0.2475,-0.2497,-0.2525,-0.2475,-0.2463,-0.2472,-0.247,-0.2518,-0.2523,-0.2533,-0.2595,-0.2597,-0.2552,-0.2555,-0.2556,-0.2557,0,0,0,0,0,0,0,-0.2426,-0.2429,-0.2462,-0.2444,-0.2445,-0.2459,-0.2461,-0.2502,-0.2498,-0.2464,-0.2463,-0.2469,-0.2518,-0.253,-0.2535,-0.2598,-0.2552,-0.2556,-0.2558,-0.256,-0.2689,-0.2691,0,0,0,0,0,0,-0.242,-0.2427,-0.246,-0.2463,-0.2433,-0.2461,-0.2463,-0.2466,-0.2497,-0.25,-0.247,-0.2468,-0.2524,-0.253,-0.2537,-0.257,-0.2556,-0.256,-0.2562,-0.2688,-0.269,-0.2691,0,0,0,0,0,0,-0.2419,-0.2422,-0.2459,-0.2447,-0.2452,-0.2463,-0.2467,-0.2468,-0.2473,-0.2501,-0.2504,-0.2473,-0.2523,-0.2532,-0.2565,-0.2573,-0.2562,-0.2565,-0.2687,-0.2689,-0.269,-0.2656,0,0,0,0,0,0,-0.2417,-0.2422,-0.2421,-0.2446,-0.2452,-0.2471,-0.2468,-0.247,-0.248,-0.2477,-0.2506,-0.251,-0.2523,-0.2559,-0.2569,-0.2578,-0.2568,-0.2685,-0.2688,-0.269,-0.2655,-0.2656,-0.2656,0,0,0,0,0,-0.2416,-0.2416,-0.2421,-0.2425,-0.2451,-0.2471,-0.2476,-0.2479,-0.2481,-0.248,-0.2502,-0.2509,-0.258,-0.2563,-0.2574,-0.2585,-0.2684,-0.2687,-0.269,-0.2655,-0.2656,-0.2656,0,0,0,0,0,0,-0.2398,-0.2415,-0.2421,-0.2426,-0.2443,-0.2468,-0.2471,-0.2482,-0.2501,-0.25,-0.2525,-0.2531,-0.256,-0.2588,-0.2569,-0.2632,-0.2634,-0.2639,-0.2604,-0.2605,-0.2606,-0.2598,-0.2571,0,0,0,0,0,-0.2396,-0.2396,-0.242,-0.2424,-0.2432,-0.2455,-0.2465,-0.247,-0.2492,-0.2498,-0.2518,-0.255,-0.2584,-0.2604,-0.2631,-0.2674,-0.2671,-0.2691,-0.2692,-0.2692,-0.2695,-0.2733,-0.2736,-0.27,-0.27,-0.27,0,0,-0.239,-0.24,-0.2401,-0.242,-0.2434,-0.2449,-0.2456,-0.2469,-0.2482,-0.2506,-0.2525,-0.2549,-0.2595,-0.2627,-0.2645,-0.265,-0.2687,-0.2695,-0.2694,-0.2698,-0.2736,-0.2739,-0.2742,-0.2701,-0.2701,-0.2701,0,0,-0.2382,-0.239,-0.2389,-0.2404,-0.2424,-0.2441,-0.2444,-0.2469,-0.2476,-0.2506,-0.2524,-0.2556,-0.2606,-0.2636,-0.2662,-0.2693,-0.2684,-0.2704,-0.2706,-0.2742,-0.2745,-0.2747,-0.2678,-0.2675,-0.271,-0.271,-0.271,0,-0.2376,-0.2377,-0.2392,-0.2401,-0.2412,-0.2437,-0.2445,-0.2466,-0.2496,-0.251,-0.2504,-0.2581,-0.2612,-0.2667,-0.2672,-0.2693,-0.2678,-0.2692,-0.274,-0.2743,-0.2747,-0.2675,-0.2672,-0.2709,-0.2709,-0.2709,-0.2709,0,-0.237,-0.2373,-0.2375,-0.2392,-0.2409,-0.2417,-0.245,-0.2464,-0.2479,-0.2502,-0.2542,-0.2582,-0.2628,-0.2646,-0.2669,-0.2715,-0.2678,-0.2727,-0.2729,-0.2748,-0.2671,-0.2668,-0.2707,-0.2707,-0.2708,-0.2708,0,0,-0.2348,-0.2365,-0.2366,-0.2369,-0.2402,-0.2413,-0.2442,-0.2473,-0.249,-0.252,-0.2544,-0.2605,-0.2621,-0.2654,-0.2686,-0.2721,-0.2707,-0.2732,-0.2735,-0.2644,-0.2705,-0.2595,-0.258,-0.2767,-0.2769,-0.277,-0.2615,0,-0.2336,-0.2338,-0.2357,-0.2366,-0.2368,-0.2405,-0.2428,-0.2464,-0.2491,-0.252,-0.2571,-0.2605,-0.2629,-0.2646,-0.2687,-0.2723,-0.2711,-0.2739,-0.2718,-0.2715,-0.2603,-0.258,-0.2405,-0.2248,-0.2612,-0.2612,-0.2611,0,-0.232,-0.2321,-0.2322,-0.2343,-0.2349,-0.2363,-0.2399,-0.2425,-0.2482,-0.2504,-0.2551,-0.2587,-0.264,-0.2661,-0.2698,-0.2714,-0.2697,-0.2707,-0.2703,-0.2619,-0.2604,-0.2307,-0.223,-0.2607,-0.2607,-0.2608,-0.2608,0,-0.2281,-0.2296,-0.2291,-0.2299,-0.2332,-0.2341,-0.2361,-0.2413,-0.2434,-0.2492,-0.2511,-0.2576,-0.2603,-0.2635,-0.2642,-0.2678,-0.265,-0.2707,-0.2565,-0.2552,-0.2409,-0.2383,-0.2704,-0.2704,-0.2705,-0.2705,-0.2705,0,-0.2253,-0.2248,-0.2268,-0.2264,-0.2262,-0.2302,-0.2312,-0.2347,-0.2397,-0.2419,-0.2495,-0.2514,-0.2609,-0.2608,-0.2616,-0.2552,-0.262,-0.2538,-0.2522,-0.2383,-0.2359,-0.2704,-0.2707,-0.2699,-0.27,-0.2702,-0.2703,0,-0.2206,-0.2222,-0.2215,-0.2237,-0.224,-0.2238,-0.2269,-0.2276,-0.2336,-0.2366,-0.2383,-0.2464,-0.2459,-0.2481,-0.2506,-0.2491,-0.2462,-0.2409,-0.2179,-0.2141,-0.2332,-0.2335,-0.2245,-0.224,-0.2236,-0.2233,-0.223,0,-0.2179,-0.2169,-0.2179,-0.2167,-0.2171,-0.2174,-0.2173,-0.2232,-0.2248,-0.2324,-0.2331,-0.2345,-0.2331,-0.2279,-0.2234,-0.2153,-0.2291,-0.1967,-0.2035,-0.23,-0.2293,-0.2302,-0.231,-0.1788,-0.1782,-0.1777,-0.1773,0,-0.2119,-0.2126,-0.2117,-0.2092,-0.2081,-0.2074,-0.2082,-0.2089,-0.216,-0.2175,-0.2196,-0.219,-0.2132,-0.1987,-0.1879,-0.184,-0.1981,-0.1861,-0.2209,-0.1951,-0.1863,-0.1859,-0.1883,-0.1727,-0.1732,-0.1735,-0.1738,-0.174,-0.2068,-0.2046,-0.2029,-0.1993,-0.1983,-0.1952,-0.1904,-0.1908,-0.1893,-0.1856,-0.1964,-0.186,-0.1873,-0.1605,-0.1527,-0.1476,-0.1641,-0.1619,-0.1638,-0.1661,-0.1655,-0.1569,-0.1368,-0.1371,-0.1373,-0.1375,-0.1376,0,-0.1974,-0.1956,-0.1924,-0.187,-0.18,-0.1838,-0.1817,-0.1728,-0.1629,-0.1612,-0.1553,-0.1395,-0.125,-0.1272,-0.1115,-0.1111,-0.1134,-0.1091,-0.1131,-0.1176,-0.1216,-0.1192,-0.0779,-0.0777,-0.0775,-0.0774,0,0,-0.1924,-0.1855,-0.1825,-0.168,-0.1643,-0.1512,-0.1469,-0.1359,-0.1299,-0.1167,-0.1086,-0.1075,-0.1187,-0.0937,-0.0916,-0.0825,-0.099,-0.0781,-0.1258,-0.1345,-0.1383,-0.1513,-0.1524,0,0,0,0,0]},{"header":{"parameterUnit":"m.s-1","parameterCategory":2,"la1":30.2991,"la2":30.254,"lo1":-89.0895,"lo2":-89.0444,"dy":0.0017,"dx":0.0017,"nx":28,"ny":28,"refTime":"2026-01-31T09:00:00:Z","depth":"2","parameterNumber":3,"parameterNumberName":"V-component_of_CURRENTS"},"data":[0,0,0,0,0,0,0,0,0,0,0,0,0,0,0,0,0,0,0,0,0,0,0,0,0,0,0,0,0,0,0,0,0,0,0,0,0,0,0,0,0,0,0,0,0,0,0,0,0,0,0,0,0,0,0,0,0,0,-0.0554,-0.0554,0,-0.054,-0.054,-0.0539,-0.0506,-0.0505,-0.0505,-0.0504,-0.0439,-0.0438,-0.0437,0,0,0,0,0,0,0,0,0,0,0,0,0,-0.0542,-0.0543,-0.0554,-0.0554,-0.0554,-0.054,-0.054,-0.0539,-0.0506,-0.0505,-0.0504,-0.0504,-0.044,-0.0438,-0.0437,0,0,0,0,0,0,0,0,0,0,0,0,0,-0.0538,-0.0543,-0.0554,-0.0537,-0.0535,-0.054,-0.054,-0.0539,-0.0506,-0.0505,-0.0504,-0.0504,-0.044,-0.0438,-0.0436,-0.0441,0,0,-0.0431,-0.043,0,0,0,0,0,0,0,0,-0.0538,-0.0538,-0.0539,-0.0538,-0.0536,-0.0525,-0.0512,-0.0505,-0.0506,-0.0515,-0.0504,-0.0503,-0.0465,-0.0461,-0.0458,-0.0438,-0.0435,-0.0431,-0.043,-0.0429,-0.0428,0,0,0,0,0,0,0,-0.0539,-0.0539,-0.0546,-0.0539,-0.0537,-0.0527,-0.0525,-0.051,-0.0492,-0.0514,-0.0512,-0.0514,-0.0463,-0.046,-0.0457,-0.0434,-0.0431,-0.0429,-0.0428,-0.0427,-0.0423,-0.0424,0,0,0,0,0,0,-0.0546,-0.0539,-0.0547,-0.0546,-0.0537,-0.0528,-0.0526,-0.0528,-0.0494,-0.0488,-0.0515,-0.0512,-0.0464,-0.0459,-0.0454,-0.0463,-0.0429,-0.0427,-0.0426,-0.0422,-0.0423,-0.0424,0,0,0,0,0,0,-0.0545,-0.0546,-0.0547,-0.0544,-0.0543,-0.0529,-0.0532,-0.0528,-0.0524,-0.0495,-0.0488,-0.0514,-0.0463,-0.0457,-0.0449,-0.046,-0.0426,-0.0425,-0.042,-0.0422,-0.0423,-0.0477,0,0,0,0,0,0,-0.0545,-0.0546,-0.0549,-0.0544,-0.0544,-0.0555,-0.0533,-0.0529,-0.0527,-0.0524,-0.0492,-0.0485,-0.0462,-0.0452,-0.0448,-0.0457,-0.0423,-0.0419,-0.0421,-0.0423,-0.0474,-0.048,-0.0486,0,0,0,0,0,-0.0545,-0.0554,-0.055,-0.0551,-0.0549,-0.0556,-0.0555,-0.054,-0.0528,-0.0532,-0.0514,-0.0486,-0.046,-0.0452,-0.0446,-0.0455,-0.0418,-0.0421,-0.0423,-0.0472,-0.0479,-0.0486,0,0,0,0,0,0,-0.055,-0.0551,-0.0546,-0.0555,-0.0558,-0.0551,-0.0553,-0.0545,-0.0535,-0.0529,-0.0498,-0.0491,-0.049,-0.0468,-0.046,-0.046,-0.0435,-0.0436,-0.0474,-0.0481,-0.0487,-0.0492,-0.0422,0,0,0,0,0,-0.0555,-0.056,-0.0561,-0.0568,-0.0571,-0.0563,-0.0563,-0.0557,-0.0548,-0.0542,-0.0523,-0.0504,-0.0496,-0.0485,-0.0474,-0.0472,-0.0445,-0.0475,-0.048,-0.0485,-0.0487,-0.0462,-0.0466,-0.0431,-0.0431,-0.0431,0,0,-0.0559,-0.056,-0.0563,-0.057,-0.0568,-0.0582,-0.0561,-0.0566,-0.0577,-0.0537,-0.0541,-0.0524,-0.0502,-0.0503,-0.05,-0.0484,-0.0483,-0.0488,-0.0492,-0.0491,-0.0465,-0.0468,-0.0471,-0.0433,-0.0432,-0.0432,0,0,-0.0574,-0.0572,-0.0584,-0.0591,-0.0596,-0.0595,-0.06,-0.0597,-0.0594,-0.06,-0.0577,-0.0569,-0.0552,-0.054,-0.0531,-0.0562,-0.0517,-0.0557,-0.0584,-0.0561,-0.0563,-0.0565,-0.0538,-0.0537,-0.0556,-0.0556,-0.0556,0,-0.058,-0.0595,-0.0589,-0.0606,-0.0617,-0.0605,-0.0625,-0.0625,-0.0621,-0.0623,-0.0608,-0.0592,-0.0571,-0.0573,-0.0584,-0.0574,-0.055,-0.0559,-0.0567,-0.0568,-0.0569,-0.0541,-0.0539,-0.0559,-0.0558,-0.0558,-0.0558,0,-0.0607,-0.0621,-0.063,-0.0647,-0.0658,-0.0674,-0.0679,-0.0684,-0.0678,-0.0675,-0.0676,-0.065,-0.0638,-0.0633,-0.0617,-0.0617,-0.0596,-0.058,-0.0548,-0.0575,-0.0545,-0.0542,-0.0563,-0.0562,-0.0561,-0.056,0,0,-0.062,-0.0644,-0.0648,-0.0666,-0.0683,-0.0697,-0.0717,-0.0733,-0.0746,-0.0734,-0.0743,-0.073,-0.0708,-0.0697,-0.0673,-0.0651,-0.0638,-0.062,-0.0617,-0.0591,-0.0581,-0.0605,-0.0603,-0.0619,-0.0619,-0.0619,-0.0558,0,-0.0645,-0.0682,-0.0689,-0.0731,-0.0752,-0.0756,-0.0777,-0.0788,-0.0788,-0.0792,-0.0765,-0.0764,-0.0735,-0.0727,-0.0704,-0.0656,-0.0632,-0.0656,-0.0561,-0.0558,-0.0573,-0.0601,-0.0491,-0.0431,-0.0555,-0.0554,-0.0554,0,-0.0675,-0.0696,-0.0736,-0.0775,-0.0785,-0.0809,-0.0841,-0.0856,-0.0858,-0.0853,-0.0841,-0.0819,-0.0795,-0.0762,-0.0691,-0.0706,-0.0651,-0.0608,-0.0605,-0.0605,-0.0577,-0.0423,-0.042,-0.0548,-0.0548,-0.0549,-0.0549,0,-0.0693,-0.0734,-0.0767,-0.0781,-0.0818,-0.084,-0.0859,-0.0874,-0.089,-0.0888,-0.0891,-0.0859,-0.0834,-0.0772,-0.0692,-0.0689,-0.0605,-0.0586,-0.0553,-0.0553,-0.0431,-0.0422,-0.0533,-0.0533,-0.0533,-0.0533,-0.0533,0,-0.0723,-0.0752,-0.0778,-0.0801,-0.0848,-0.0861,-0.0903,-0.0917,-0.0927,-0.0949,-0.0919,-0.092,-0.0834,-0.078,-0.0705,-0.0626,-0.0612,-0.0565,-0.0545,-0.045,-0.0444,-0.0521,-0.052,-0.0531,-0.0531,-0.0532,-0.0532,0,-0.0743,-0.0758,-0.08,-0.084,-0.086,-0.0891,-0.0937,-0.0962,-0.0965,-0.099,-0.0991,-0.0955,-0.0894,-0.0807,-0.0698,-0.0644,-0.0565,-0.0535,-0.0436,-0.0407,-0.0524,-0.0527,-0.0501,-0.0501,-0.0502,-0.0502,-0.0502,0,-0.0756,-0.0776,-0.0828,-0.0859,-0.0882,-0.0926,-0.096,-0.098,-0.1007,-0.1016,-0.103,-0.0981,-0.0952,-0.0809,-0.0654,-0.0526,-0.0567,-0.0409,-0.0399,-0.0541,-0.0523,-0.0526,-0.0528,-0.0242,-0.024,-0.0238,-0.0237,0,-0.0779,-0.0791,-0.0824,-0.0885,-0.093,-0.0978,-0.1028,-0.1059,-0.1081,-0.1086,-0.1102,-0.1078,-0.0914,-0.0729,-0.0562,-0.0473,-0.0428,-0.038,-0.0523,-0.0297,-0.03,-0.0282,-0.0292,-0.0223,-0.0225,-0.0226,-0.0226,-0.0227,-0.0787,-0.0812,-0.0851,-0.0908,-0.0962,-0.1025,-0.1068,-0.1055,-0.108,-0.1023,-0.1084,-0.095,-0.0837,-0.0512,-0.0403,-0.0272,-0.0333,-0.0292,-0.0294,-0.0299,-0.031,-0.0317,-0.0244,-0.0245,-0.0247,-0.0248,-0.0249,0,-0.0765,-0.0817,-0.0874,-0.0939,-0.0962,-0.1023,-0.1105,-0.1044,-0.1004,-0.0929,-0.0868,-0.0672,-0.0498,-0.0383,-0.014,-0.0092,-0.0035,-0.0095,-0.0026,-0.004,-0.0052,-0.005,0.0086,0.0086,0.0087,0.0088,0,0,-0.0758,-0.0785,-0.0813,-0.0879,-0.0952,-0.0952,-0.0996,-0.0889,-0.0796,-0.0644,-0.0537,-0.046,-0.0422,-0.0197,-0.0108,0.0002,-0.0025,0.0037,-0.0229,-0.0167,-0.018,-0.0158,-0.0171,0,0,0,0,0]}],[{"header":{"parameterUnit":"m.s-1","parameterCategory":2,"la1":30.2991,"la2":30.254,"lo1":-89.0895,"lo2":-89.0444,"dy":0.0017,"dx":0.0017,"nx":28,"ny":28,"refTime":"2026-01-31T09:00:00:Z","depth":"4","parameterNumber":2,"parameterNumberName":"U-component_of_CURRENTS"},"data":[0,0,0,0,0,0,0,0,0,0,0,0,0,0,0,0,0,0,0,0,0,0,0,0,0,0,0,0,0,0,0,0,0,0,0,0,0,0,0,0,0,0,0,0,0,0,0,0,0,0,0,0,0,0,0,0,0,0,-0.1571,-0.1571,0,-0.1613,-0.1614,-0.1614,-0.1643,-0.1644,-0.1644,-0.1644,-0.1711,-0.1713,-0.1714,0,0,0,0,0,0,0,0,0,0,0,0,0,-0.1515,-0.1516,-0.1571,-0.1571,-0.1572,-0.1613,-0.1614,-0.1614,-0.1643,-0.1644,-0.1644,-0.1644,-0.1711,-0.1712,-0.1714,0,0,0,0,0,0,0,0,0,0,0,0,0,-0.1546,-0.1516,-0.1571,-0.1592,-0.1594,-0.1613,-0.1614,-0.1614,-0.1643,-0.1644,-0.1644,-0.1645,-0.171,-0.1712,-0.1715,-0.172,0,0,-0.1722,-0.1723,0,0,0,0,0,0,0,0,-0.1544,-0.1548,-0.1588,-0.1591,-0.1593,-0.1624,-0.1619,-0.1651,-0.1643,-0.1624,-0.1644,-0.1645,-0.1684,-0.1689,-0.1695,-0.1723,-0.1726,-0.1722,-0.1723,-0.1724,-0.1725,0,0,0,0,0,0,0,-0.1542,-0.1546,-0.1587,-0.1589,-0.1592,-0.1599,-0.1604,-0.1625,-0.1651,-0.1626,-0.1628,-0.1634,-0.1686,-0.1692,-0.1697,-0.1727,-0.1722,-0.1724,-0.1725,-0.1726,-0.183,-0.1832,0,0,0,0,0,0,-0.1538,-0.1544,-0.1586,-0.1588,-0.157,-0.16,-0.1605,-0.1613,-0.1651,-0.1657,-0.1633,-0.1635,-0.1688,-0.1694,-0.1699,-0.1758,-0.1724,-0.1726,-0.1728,-0.1829,-0.1831,-0.1832,0,0,0,0,0,0,-0.1536,-0.1541,-0.1584,-0.1568,-0.1574,-0.1601,-0.1609,-0.1614,-0.1645,-0.1656,-0.1663,-0.1662,-0.1689,-0.1696,-0.1737,-0.1759,-0.1727,-0.1729,-0.1827,-0.183,-0.1832,-0.1845,0,0,0,0,0,0,-0.1535,-0.154,-0.1558,-0.1567,-0.1574,-0.1607,-0.1609,-0.1614,-0.1646,-0.165,-0.1683,-0.1688,-0.169,-0.1733,-0.1739,-0.1762,-0.1731,-0.1826,-0.1828,-0.1831,-0.1843,-0.1847,-0.1851,0,0,0,0,0,-0.1532,-0.1548,-0.1558,-0.1564,-0.1593,-0.1608,-0.1612,-0.1632,-0.1648,-0.1662,-0.1688,-0.1688,-0.1754,-0.1736,-0.1742,-0.1767,-0.1824,-0.1828,-0.1831,-0.1841,-0.1846,-0.1851,0,0,0,0,0,0,-0.1536,-0.1553,-0.1564,-0.1587,-0.1603,-0.1613,-0.1633,-0.1647,-0.1679,-0.1692,-0.1704,-0.171,-0.1754,-0.1763,-0.1743,-0.1807,-0.1791,-0.1795,-0.1796,-0.1802,-0.1806,-0.1792,-0.1733,0,0,0,0,0,-0.1544,-0.1563,-0.1576,-0.1598,-0.1607,-0.1627,-0.1642,-0.1655,-0.1677,-0.1693,-0.1716,-0.1745,-0.1768,-0.1788,-0.1808,-0.1844,-0.1821,-0.1866,-0.187,-0.1874,-0.1869,-0.1848,-0.1848,-0.1843,-0.1843,-0.1843,0,0,-0.1554,-0.1566,-0.1579,-0.1601,-0.1617,-0.1632,-0.1638,-0.1666,-0.1686,-0.1695,-0.1742,-0.1761,-0.1782,-0.1817,-0.1838,-0.183,-0.1865,-0.1878,-0.188,-0.1873,-0.1851,-0.1851,-0.1851,-0.1845,-0.1844,-0.1844,0,0,-0.1566,-0.1592,-0.1606,-0.162,-0.1646,-0.1656,-0.167,-0.1695,-0.1716,-0.1755,-0.1768,-0.1801,-0.1844,-0.1856,-0.1868,-0.1912,-0.1887,-0.1929,-0.194,-0.192,-0.1919,-0.1919,-0.1887,-0.1883,-0.1932,-0.1932,-0.1932,0,-0.1581,-0.1595,-0.1613,-0.1627,-0.1642,-0.1669,-0.1684,-0.1709,-0.1747,-0.1762,-0.1776,-0.1834,-0.1858,-0.1886,-0.1906,-0.1919,-0.1897,-0.1915,-0.1922,-0.1921,-0.192,-0.1887,-0.1883,-0.1933,-0.1933,-0.1933,-0.1933,0,-0.1589,-0.1613,-0.1624,-0.1649,-0.1669,-0.1689,-0.1716,-0.1747,-0.1779,-0.1796,-0.184,-0.1867,-0.1894,-0.1917,-0.1927,-0.1942,-0.1925,-0.1925,-0.19,-0.192,-0.1886,-0.1881,-0.1935,-0.1934,-0.1934,-0.1934,0,0,-0.1585,-0.1623,-0.163,-0.1642,-0.1682,-0.1694,-0.1735,-0.1764,-0.1783,-0.183,-0.1845,-0.1903,-0.1914,-0.1929,-0.1947,-0.1942,-0.1925,-0.1936,-0.1934,-0.1888,-0.1867,-0.1763,-0.1747,-0.192,-0.1919,-0.1919,-0.1843,0,-0.1587,-0.1611,-0.1633,-0.1664,-0.1675,-0.1712,-0.174,-0.1775,-0.1806,-0.1828,-0.1861,-0.1886,-0.1919,-0.1931,-0.1935,-0.1922,-0.1913,-0.1944,-0.1868,-0.1866,-0.1757,-0.1739,-0.1917,-0.184,-0.1838,-0.1837,-0.1837,0,-0.1577,-0.1596,-0.1625,-0.1659,-0.1669,-0.1696,-0.1735,-0.1762,-0.18,-0.1823,-0.1852,-0.1869,-0.1885,-0.1904,-0.1886,-0.1901,-0.189,-0.1879,-0.1875,-0.1768,-0.1752,-0.1819,-0.1827,-0.1828,-0.1829,-0.183,-0.183,0,-0.1541,-0.1585,-0.1609,-0.1623,-0.167,-0.1695,-0.1721,-0.1763,-0.1776,-0.1812,-0.1811,-0.184,-0.1835,-0.1834,-0.1833,-0.1852,-0.179,-0.1807,-0.1703,-0.1696,-0.1806,-0.1808,-0.1787,-0.1787,-0.1787,-0.1788,-0.1788,0,-0.1512,-0.1535,-0.1599,-0.1609,-0.1632,-0.1675,-0.1697,-0.1729,-0.1756,-0.1744,-0.1802,-0.1777,-0.1815,-0.1792,-0.1803,-0.1721,-0.1763,-0.1686,-0.1662,-0.1816,-0.1819,-0.1802,-0.1805,-0.1785,-0.1785,-0.1786,-0.1787,0,-0.1461,-0.1508,-0.1538,-0.1598,-0.1615,-0.1633,-0.1671,-0.1672,-0.1713,-0.1693,-0.1698,-0.1713,-0.1675,-0.1702,-0.168,-0.165,-0.1609,-0.158,-0.1726,-0.1715,-0.1536,-0.1541,-0.1431,-0.1427,-0.1423,-0.142,-0.1417,0,-0.1432,-0.1445,-0.1519,-0.1532,-0.1562,-0.1593,-0.1597,-0.1646,-0.1633,-0.1632,-0.1597,-0.158,-0.1584,-0.1451,-0.1512,-0.1493,-0.1503,-0.1463,-0.1517,-0.1508,-0.1496,-0.1507,-0.1517,-0.1411,-0.141,-0.1409,-0.1408,0,-0.1374,-0.1421,-0.1445,-0.147,-0.149,-0.1492,-0.1501,-0.1471,-0.1496,-0.1549,-0.1446,-0.1414,-0.1363,-0.1355,-0.1349,-0.1351,-0.1474,-0.1424,-0.1433,-0.1483,-0.1483,-0.1477,-0.1491,-0.1395,-0.1397,-0.1399,-0.1399,0,-0.1338,-0.1344,-0.1383,-0.1385,-0.1407,-0.1365,-0.1384,-0.1339,-0.1327,-0.133,-0.1288,-0.1289,-0.132,-0.1278,-0.1274,-0.126,-0.1261,-0.1234,-0.1253,-0.1268,-0.1258,-0.1236,-0.103,0,0,0,0,0,-0.1292,-0.1279,-0.1282,-0.1274,-0.1288,-0.1294,-0.1299,-0.1316,-0.1332,-0.1222,-0.125,-0.1203,-0.116,-0.117,-0.1128,-0.1233,-0.1288,-0.118,-0.1273,-0.1323,-0.1338,-0.1345,0,0,0,0,0,0,-0.1259,-0.1274,-0.1252,-0.1171,-0.1142,-0.1135,-0.1132,-0.1149,-0.109,-0.1121,-0.1104,-0.1143,-0.1131,-0.1174,-0.1109,-0.1117,-0.1152,-0.1204,-0.1201,-0.1314,-0.1328,-0.134,-0.1353,0,0,0,0,0]},{"header":{"parameterUnit":"m.s-1","parameterCategory":2,"la1":30.2991,"la2":30.254,"lo1":-89.0895,"lo2":-89.0444,"dy":0.0017,"dx":0.0017,"nx":28,"ny":28,"refTime":"2026-01-31T09:00:00:Z","depth":"4","parameterNumber":3,"parameterNumberName":"V-component_of_CURRENTS"},"data":[0,0,0,0,0,0,0,0,0,0,0,0,0,0,0,0,0,0,0,0,0,0,0,0,0,0,0,0,0,0,0,0,0,0,0,0,0,0,0,0,0,0,0,0,0,0,0,0,0,0,0,0,0,0,0,0,0,0,0.0076,0.0076,0,0.0085,0.0085,0.0085,0.0107,0.0108,0.0108,0.0109,0.0138,0.0139,0.0139,0,0,0,0,0,0,0,0,0,0,0,0,0,0.0084,0.0084,0.0076,0.0076,0.0076,0.0085,0.0085,0.0085,0.0107,0.0108,0.0108,0.0109,0.0138,0.0139,0.0139,0,0,0,0,0,0,0,0,0,0,0,0,0,0.0086,0.0084,0.0076,0.0087,0.0088,0.0085,0.0085,0.0086,0.0107,0.0108,0.0108,0.0109,0.0138,0.0139,0.0139,0.0132,0,0,0.0141,0.0141,0,0,0,0,0,0,0,0,0.0086,0.0086,0.0085,0.0086,0.0087,0.0095,0.0099,0.0102,0.0107,0.0101,0.0109,0.0109,0.0125,0.0126,0.0128,0.0133,0.0134,0.0141,0.0142,0.0142,0.0142,0,0,0,0,0,0,0,0.0086,0.0086,0.008,0.0085,0.0087,0.0094,0.0095,0.01,0.011,0.0101,0.0103,0.0102,0.0126,0.0127,0.0129,0.0135,0.0141,0.0142,0.0142,0.0142,0.0102,0.0101,0,0,0,0,0,0,0.0082,0.0085,0.008,0.008,0.0087,0.0094,0.0095,0.0093,0.011,0.0113,0.0102,0.0103,0.0126,0.0128,0.013,0.0094,0.0142,0.0143,0.0143,0.0104,0.0102,0.0101,0,0,0,0,0,0,0.0082,0.0081,0.0079,0.0083,0.0083,0.0093,0.009,0.0092,0.0093,0.011,0.0114,0.01,0.0126,0.0129,0.0121,0.0097,0.0143,0.0143,0.0106,0.0103,0.0101,0.0041,0,0,0,0,0,0,0.0082,0.0081,0.0076,0.0082,0.0083,0.0071,0.009,0.0092,0.0091,0.0093,0.0109,0.0112,0.0127,0.012,0.0121,0.0099,0.0144,0.0107,0.0105,0.0102,0.0045,0.0038,0.0031,0,0,0,0,0,0.0082,0.0073,0.0076,0.0075,0.0076,0.007,0.007,0.008,0.009,0.0084,0.009,0.0112,0.0104,0.0119,0.0121,0.0098,0.0109,0.0105,0.0102,0.0049,0.0039,0.0031,0,0,0,0,0,0,0.0074,0.0075,0.0078,0.0069,0.0067,0.0073,0.0069,0.0075,0.0075,0.0078,0.0097,0.01,0.0081,0.0096,0.0113,0.0077,0.0108,0.0105,0.0066,0.0058,0.0051,0.0043,0.0144,0,0,0,0,0,0.0069,0.0063,0.0064,0.0056,0.0053,0.006,0.0059,0.0063,0.0065,0.0066,0.0074,0.0077,0.0069,0.0069,0.0067,0.0053,0.0066,0.0037,0.003,0.0024,0.0018,0.0012,0.0004,0.009,0.009,0.009,0,0,0.0064,0.0063,0.006,0.0054,0.0054,0.0038,0.0061,0.0054,0.0035,0.0068,0.0047,0.0053,0.0058,0.0035,0.0029,0.0047,0.0005,0.002,0.0015,0.0012,0.0008,-0.0,-0.0008,0.0088,0.0088,0.0088,0,0,0.0048,0.0049,0.0037,0.0029,0.0024,0.0022,0.0017,0.0016,0.0012,-0.0008,0.0004,-0.0008,-0.001,-0.0018,-0.0021,-0.007,-0.0035,-0.0067,-0.0105,-0.0111,-0.0118,-0.0123,-0.0119,-0.0124,-0.0067,-0.0067,-0.0067,0,0.0041,0.0025,0.0032,0.0015,0.0001,0.0011,-0.0014,-0.0021,-0.0027,-0.004,-0.0024,-0.005,-0.0041,-0.0079,-0.0094,-0.0087,-0.0075,-0.007,-0.0119,-0.0125,-0.013,-0.0124,-0.0129,-0.007,-0.007,-0.007,-0.0069,0,0.0015,-0.0002,-0.0011,-0.0033,-0.0048,-0.0065,-0.0079,-0.0096,-0.0099,-0.0106,-0.014,-0.0133,-0.0147,-0.015,-0.0134,-0.0172,-0.0147,-0.0129,-0.0095,-0.0142,-0.0133,-0.0137,-0.0075,-0.0074,-0.0073,-0.0072,0,0,0.0006,-0.0024,-0.0028,-0.0051,-0.0076,-0.0093,-0.0132,-0.0165,-0.0194,-0.0201,-0.0238,-0.0254,-0.0241,-0.0244,-0.0229,-0.0232,-0.0254,-0.0193,-0.0192,-0.0185,-0.0257,-0.0203,-0.0202,-0.0238,-0.0239,-0.0239,-0.0236,0,-0.0019,-0.006,-0.0072,-0.0123,-0.0149,-0.0165,-0.0204,-0.0234,-0.025,-0.0282,-0.0286,-0.0311,-0.028,-0.0284,-0.0287,-0.0264,-0.0267,-0.0256,-0.0216,-0.0215,-0.0158,-0.0205,-0.0243,-0.0239,-0.024,-0.024,-0.0241,0,-0.0045,-0.007,-0.0119,-0.0175,-0.0189,-0.0223,-0.0284,-0.0316,-0.0356,-0.0366,-0.0387,-0.0381,-0.0399,-0.0358,-0.0351,-0.0341,-0.0306,-0.0283,-0.0282,-0.0214,-0.0169,-0.0182,-0.0247,-0.0246,-0.0246,-0.0245,-0.0245,0,-0.0055,-0.0109,-0.0149,-0.0167,-0.0225,-0.0261,-0.0297,-0.0344,-0.0377,-0.0416,-0.0435,-0.0451,-0.0455,-0.043,-0.0373,-0.0364,-0.0347,-0.0331,-0.0255,-0.025,-0.027,-0.0263,-0.0327,-0.0327,-0.0327,-0.0327,-0.0327,0,-0.0079,-0.0114,-0.0159,-0.0184,-0.0248,-0.0281,-0.0349,-0.0382,-0.0429,-0.0468,-0.0473,-0.0495,-0.047,-0.045,-0.0399,-0.0334,-0.0368,-0.0272,-0.0251,-0.0295,-0.0292,-0.0272,-0.0266,-0.0327,-0.0327,-0.0327,-0.0327,0,-0.0083,-0.011,-0.016,-0.0225,-0.0254,-0.0297,-0.038,-0.0422,-0.0459,-0.0508,-0.052,-0.0535,-0.0508,-0.0466,-0.042,-0.0362,-0.0309,-0.0272,-0.032,-0.03,-0.0204,-0.0201,-0.021,-0.0208,-0.0207,-0.0206,-0.0204,0,-0.009,-0.0113,-0.0183,-0.0216,-0.0249,-0.0319,-0.0368,-0.043,-0.0467,-0.0524,-0.0542,-0.054,-0.0533,-0.0436,-0.0388,-0.0299,-0.027,-0.024,-0.0231,-0.0216,-0.0196,-0.0195,-0.0194,-0.0202,-0.0202,-0.0201,-0.0201,0,-0.0101,-0.0118,-0.0156,-0.0218,-0.0275,-0.0339,-0.0409,-0.0441,-0.0502,-0.0539,-0.0548,-0.0515,-0.048,-0.0419,-0.034,-0.0275,-0.0265,-0.0224,-0.0227,-0.0219,-0.0207,-0.0187,-0.0188,-0.0196,-0.0196,-0.0197,-0.0197,0,-0.0104,-0.0124,-0.0165,-0.0218,-0.0281,-0.0334,-0.0384,-0.043,-0.0474,-0.0531,-0.0531,-0.0507,-0.0506,-0.0405,-0.0338,-0.0265,-0.0246,-0.0211,-0.0215,-0.022,-0.0213,-0.0199,-0.0179,0,0,0,0,0,-0.011,-0.0124,-0.0167,-0.0223,-0.0276,-0.0305,-0.0396,-0.0438,-0.0501,-0.0498,-0.0514,-0.0477,-0.0391,-0.0372,-0.0289,-0.0305,-0.0231,-0.0203,-0.0192,-0.0167,-0.0173,-0.0157,0,0,0,0,0,0,-0.0117,-0.0146,-0.0156,-0.0202,-0.0226,-0.0288,-0.0337,-0.0386,-0.0392,-0.0444,-0.0406,-0.0414,-0.0339,-0.0415,-0.0265,-0.0251,-0.0224,-0.0179,-0.0176,-0.0163,-0.0169,-0.0174,-0.016,0,0,0,0,0]}]]